Temperature
7 5 5 6 6 7 7 6 6 6 6 6 5 5 5 5 4 4 4 4 5 5 6 6 6 7 7 7 7 7 7 7 8 8 8 8 8 8 8 8 8 8 8 9
5 5 6 6 6 6 6 6 5 5 6 6 4 4 5 4 4 4 4 4 4 5 5 5 6 6 6 6 7 7 7 7 7 7 7 7 7 7 7 7 7 7 8 8
6 6 6 6 6 6 6 6 5 5 5 5 4 5 4 4 4 4 4 4 4 4 5 5 5 5 6 6 6 6 6 6 6 7 7 7 7 7 7 7 7 7 7 7
5 5 6 6 6 6 6 6 6 5 5 4 5 4 4 4 3 3 3 4 4 4 4 4 5 5 5 5 5 5 6 6 6 6 6 6 6 6 6 6 6 6 6 6
5 5 6 6 6 6 5 5 5 5 4 3 3 3 4 3 3 3 3 3 3 4 4 4 4 4 4 4 5 5 5 5 5 6 6 6 6 5 5 5 5 6 6 6
5 5 5 5 5 5 5 5 4 3 3 3 3 3 4 3 3 3 3 3 3 3 4 4 4 4 4 4 4 4 5 5 5 5 5 5 5 5 5 5 5 5 5 5
5 5 5 5 5 5 5 4 3 3 2 3 3 3 3 3 3 3 2 2 3 3 3 3 4 4 4 4 4 4 4 4 4 4 4 4 4 4 4 4 4 4 4 4
4 4 4 4 5 4 4 4 4 4 3 3 3 3 3 2 2 2 2 2 3 3 3 3 3 3 3 3 3 3 4 4 4 4 4 4 3 3 4 3 3 3 3 4
3 4 4 4 4 4 4 3 3 2 1 2 2 2 2 2 2 1 2 2 2 2 2 3 3 3 3 3 3 3 3 3 3 3 3 3 3 3 3 3 3 3 3 3
3 3 3 3 4 4 4 3 2 2 3 3 3 2 2 2 2 1 1 1 2 2 2 2 2 2 2 2 2 2 2 2 2 2 2 2 2 2 2 2 2 2 2 2
2 2 2 3 3 3 3 3 2 1 2 3 3 3 2 2 1 1 0 1 1 2 2 2 2 2 2 2 2 2 2 2 2 2 2 2 2 2 2 2 2 2 2 2
1 1 1 2 2 2 2 2 2 2 2 1 2 3 2 1 1 0 0 1 1 1 1 1 1 1 2 2 2 2 2 1 1 1 1 1 1 1 1 1 1 1 1 2
1 1 1 2 2 2 2 1 1 1 0 -0 1 3 1 0 0 0 0 1 1 1 1 1 1 1 1 1 1 1 1 1 1 1 1 1 1 1 1 1 1 1 1 1
1 -0 1 3 2 1 1 1 0 1 1 0 1 2 1 1 0 -0 -0 0 0 0 0 0 1 1 1 1 0 0 1 0 0 0 0 0 0 0 0 0 0 0 0 0
0 -0 -0 0 0 0 0 0 0 0 0 1 1 1 1 0 -1 -1 -1 -1 -1 -0 -0 -0 0 0 0 0 0 0 0 0 -0 -0 -0 -0 -0 -0 -0 -0 -0 -0 0 0
-1 -1 -1 -0 0 -0 -0 -0 -0 -0 -0 0 0 0 -0 -1 -1 -1 -1 -1 -2 -1 -1 -0 -0 -0 -0 -0 -0 -0 -0 -0 -0 -1 -1 -1 -1 -1 -1 -1 -0 -0 -0 -0
-2 -1 -1 -0 -1 -0 -0 -1 -1 -1 -1 -1 0 0 -1 -2 -2 -2 -2 -2 -1 -1 -1 -1 -1 -1 -1 -1 -1 -1 -1 -1 -1 -1 -1 -1 -1 -1 -1 -1 -1 -1 -1 -1
-2 -2 -2 -2 -1 1 1 -1 -1 -1 -1 -2 -2 -2 -2 -2 -2 -1 -1 -1 -1 -1 -1 -1 -1 -1 -1 -1 -1 -1 -1 -1 -1 -1 -2 -1 -1 -1 -1 -1 -1 -1 -1 -1
-2 -2 -2 -2 -1 -1 -0 -1 -2 -2 -1 -2 -2 -2 -3 -2 -2 -2 -1 -1 -1 -1 -1 -1 -1 -1 -1 -1 -1 -1 -2 -2 -2 -2 -2 -2 -2 -2 -2 -2 -2 -2 -2 -2
-3 -3 -3 -3 -1 -0 0 -1 -2 -2 -1 -2 -3 -3 -3 -3 -2 -2 -1 -1 -1 -1 -2 -2 -1 -1 -1 -2 -2 -2 -2 -2 -2 -2 -2 -2 -2 -2 -2 -2 -2 -2 -2 -2
-3 -3 -3 -3 -2 -2 -2 -2 -2 -1 -0 -2 -2 -3 -3 -3 -2 -2 -1 -2 -2 -2 -2 -2 -2 -2 -2 -2 -2 -2 -2 -3 -3 -3 -3 -3 -3 -3 -3 -3 -3 -3 -2 -2
-3 -3 -4 -3 -2 -1 -3 -3 -2 -2 -2 -2 -2 -2 -3 -2 -2 -2 -2 -2 -2 -2 -2 -2 -2 -2 -2 -2 -2 -2 -3 -3 -3 -3 -3 -3 -3 -3 -3 -3 -3 -3 -3 -3
-4 -3 -4 -3 -2 -2 -3 -2 -2 -2 -2 -2 -2 -2 -2 -3 -3 -2 -2 -2 -3 -3 -3 -3 -3 -3 -3 -3 -3 -3 -3 -3 -3 -3 -3 -3 -3 -3 -3 -3 -3 -3 -4 -4
-5 -5 -5 -5 -4 -3 -3 -2 -2 -2 -2 -2 -2 -2 -2 -2 -3 -3 -3 -3 -3 -3 -3 -3 -3 -3 -3 -3 -4 -4 -4 -4 -4 -4 -4 -4 -4 -4 -4 -4 -4 -4 -4 -4
-4 -5 -5 -5 -5 -4 -3 -2 -2 -2 -2 -2 -2 -2 -2 -2 -3 -3 -3 -3 -3 -4 -4 -4 -4 -4 -4 -4 -4 -4 -4 -4 -4 -4 -4 -4 -4 -4 -4 -4 -5 -5 -5 -5
-5 -5 -5 -3 -4 -4 -3 -2 -2 -2 -2 -2 -2 -2 -2 -3 -3 -3 -3 -3 -4 -4 -4 -4 -4 -4 -4 -4 -4 -4 -4 -4 -4 -4 -4 -4 -4 -5 -5 -5 -5 -5 -5 -5
Wind_Speed
3 3 3 6 7 3 3 4 4 4 2 0 3 6 7 3 2 2 2 2 2 2 2 3 3 4 3 4 3 3 3 3 2 2 1 1 1 1 2 2 3 2 1 1
3 3 5 2 3 3 3 3 3 2 1 1 2 6 6 3 2 3 4 3 3 2 2 3 4 4 3 3 3 3 2 2 2 1 0 0 0 0 1 2 3 3 2 1
5 3 2 3 2 3 3 5 4 3 2 1 2 5 3 2 0 0 1 2 1 1 1 3 3 4 4 3 3 2 3 2 2 2 1 2 1 1 1 1 2 3 2 1
3 3 1 2 3 4 4 3 3 3 1 2 0 4 5 3 2 2 2 1 1 1 1 2 2 3 4 3 3 3 3 3 2 2 2 1 0 1 1 1 1 3 2 1
3 1 2 3 3 4 3 1 2 2 2 1 0 2 6 1 3 5 3 2 2 2 1 1 2 2 3 3 3 3 3 3 3 2 1 1 1 1 1 1 1 1 2 1
3 1 2 3 0 2 3 4 4 4 3 2 4 5 6 4 5 4 3 2 2 2 2 2 2 2 3 3 3 3 3 3 2 2 1 1 1 1 1 1 1 1 1 1
3 2 1 1 2 2 4 5 3 3 2 5 2 4 7 5 4 4 4 3 3 2 1 2 3 3 3 4 4 3 3 3 2 2 1 0 1 1 1 1 1 1 1 1
0 4 2 0 2 4 3 6 6 4 4 4 1 5 6 4 3 2 1 2 2 2 1 2 2 2 3 3 3 3 3 3 2 1 1 1 1 1 1 1 2 2 2 2
3 3 1 0 0 4 4 3 3 4 1 2 5 5 6 2 2 1 1 2 3 3 2 2 2 2 2 3 3 3 3 3 3 2 2 1 1 1 2 2 2 2 2 2
4 2 3 2 1 1 2 5 4 4 3 4 5 5 4 4 4 2 2 3 4 4 4 3 3 3 2 2 3 3 2 2 3 2 2 2 2 2 2 2 2 3 2 2
3 3 3 1 3 4 2 3 3 3 3 3 3 6 3 5 5 4 4 4 4 4 4 4 3 3 2 2 3 3 3 3 3 2 2 2 2 2 1 2 2 2 2 2
2 3 2 4 2 2 3 4 5 4 4 3 3 6 2 3 3 3 3 3 4 4 3 3 3 3 3 3 3 4 4 3 3 3 2 2 2 1 1 2 3 2 2 2
4 4 1 4 2 0 1 2 3 3 3 4 4 6 2 1 1 1 2 3 5 5 4 4 3 2 3 3 4 4 4 4 4 3 2 2 2 2 2 2 3 2 2 2
4 3 5 7 5 2 3 3 4 5 4 5 8 9 8 6 4 4 4 4 4 4 4 4 3 2 3 3 3 4 4 4 3 3 3 3 3 3 3 3 2 2 2 2
4 3 3 4 4 3 4 5 5 7 8 8 9 9 11 7 6 5 4 4 4 5 5 4 3 3 3 4 4 4 4 4 3 3 3 3 3 3 3 2 2 2 2 2
2 2 1 2 2 3 5 7 8 9 8 9 9 11 9 5 3 4 4 4 4 5 6 5 3 3 4 4 4 4 4 4 3 2 3 3 3 3 3 2 2 2 2 2
3 3 2 3 2 3 6 7 8 6 6 6 9 10 5 4 4 5 5 4 4 5 6 5 4 4 4 4 4 4 4 4 2 2 2 3 3 3 3 3 2 2 2 2
5 4 2 0 2 5 6 1 5 6 6 7 6 6 5 5 5 4 3 3 4 5 5 5 4 4 4 3 4 4 3 2 2 2 3 3 3 3 3 3 2 2 2 1
3 5 3 2 2 7 6 2 2 3 5 5 6 7 4 3 2 3 3 3 4 4 5 4 4 3 3 3 3 3 3 2 2 2 3 3 3 3 3 3 3 2 1 2
2 3 3 3 3 6 5 1 1 2 5 3 4 6 3 0 2 5 3 3 4 4 4 3 3 2 2 3 2 2 3 3 3 3 2 2 2 2 2 2 2 2 1 1
1 1 3 4 5 7 5 1 3 3 5 3 3 4 3 4 5 4 3 2 3 3 3 3 2 2 2 2 2 2 2 3 3 3 2 2 2 2 2 2 2 2 2 2
5 4 4 4 4 7 2 4 4 5 2 2 3 3 3 4 3 2 2 2 2 3 3 2 2 3 3 2 2 2 3 3 3 3 3 3 3 2 2 2 2 2 2 2
5 6 5 7 6 3 3 5 3 2 3 4 3 3 3 3 3 3 2 2 2 2 2 2 2 3 3 3 2 2 3 3 3 3 3 3 3 3 2 2 2 2 2 1
3 2 3 5 6 5 5 4 3 3 4 5 4 4 3 3 3 3 2 2 2 2 2 2 2 2 3 4 3 2 3 3 3 3 3 3 3 3 3 2 2 1 1 1
4 4 3 6 6 5 4 4 4 4 4 4 3 3 3 3 3 2 2 2 2 2 2 1 1 2 3 4 3 3 3 3 2 3 3 3 3 3 3 3 2 2 1 1
4 5 5 6 4 4 6 4 3 3 4 4 3 3 2 3 3 2 2 2 1 1 1 1 2 2 3 3 4 4 4 2 2 2 3 3 3 2 2 2 3 5 4 5
Wind_Direction
58 86 213 216 205 203 173 189 240 251 256 173 237 270 285 285 248 239 241 240 254 271 304 348 351 357 5 14 18 28 40 21 37 41 36 23 354 3 21 13 17 5 27 66
61 245 241 216 194 195 185 196 236 290 345 189 273 282 284 272 240 220 215 220 232 272 348 3 4 7 7 9 10 13 18 17 17 14 35 249 300 0 3 11 9 354 14 32
189 239 195 169 172 193 219 196 206 235 340 41 353 303 284 309 336 3 217 207 227 235 302 347 360 356 358 359 357 352 355 359 0 7 39 47 50 24 23 5 353 346 5 32
231 268 180 181 214 179 240 216 196 188 139 278 81 285 279 281 309 306 281 263 279 291 322 348 354 355 349 337 348 4 2 360 0 15 37 57 73 266 278 302 330 345 355 17
250 222 160 209 233 182 205 83 135 156 153 320 233 215 281 282 269 266 255 245 267 284 283 306 316 318 333 339 350 359 8 1 358 11 23 27 338 290 314 343 2 352 343 349
246 251 207 213 239 158 132 74 60 57 83 266 225 192 271 244 237 246 243 254 275 286 287 293 315 340 350 356 360 1 13 356 353 8 25 41 329 313 352 347 324 329 347 324
327 302 292 107 91 75 103 99 36 355 342 250 212 200 251 258 249 228 232 252 280 282 290 315 334 341 345 348 351 352 354 343 346 1 4 336 243 241 231 246 263 292 319 301
248 286 262 163 173 178 176 149 165 206 230 274 272 233 254 279 295 271 242 270 308 310 306 308 303 303 317 328 334 336 337 334 336 336 316 316 281 241 237 238 239 242 257 264
182 251 336 127 218 144 154 178 161 136 144 271 262 280 297 296 338 1 350 347 325 315 312 303 297 299 310 313 313 315 325 330 324 311 304 298 280 267 267 265 254 246 252 265
157 242 294 315 78 16 153 144 114 140 181 252 275 263 250 259 262 282 301 305 306 318 322 318 304 299 309 309 314 323 329 321 312 302 291 290 277 276 282 275 264 261 253 258
138 171 311 15 186 198 135 145 145 146 174 187 260 267 239 226 226 234 263 286 293 299 303 304 303 303 317 335 341 337 335 336 329 310 298 297 295 292 295 287 276 269 271 264
148 136 246 259 252 180 175 183 161 174 221 196 218 267 289 229 234 231 263 292 306 301 305 307 310 327 340 340 342 339 337 336 326 316 314 310 312 314 301 293 288 277 272 280
143 129 41 341 347 32 217 213 181 149 139 179 207 262 318 341 314 279 277 304 316 321 327 328 326 332 330 334 338 338 336 333 335 339 339 337 329 316 293 285 289 292 290 295
134 146 183 211 231 205 233 228 185 163 198 224 232 255 283 287 289 295 293 296 304 311 315 312 314 316 323 329 332 332 330 331 333 342 343 336 322 306 290 281 281 281 279 281
135 186 215 248 258 238 241 244 215 207 214 224 247 250 268 266 263 266 271 287 304 310 313 304 310 314 324 331 333 335 330 335 341 342 336 324 320 323 312 296 288 286 285 281
125 162 173 268 254 252 267 262 241 237 235 238 257 267 269 270 266 271 272 275 285 295 300 304 313 315 315 319 324 328 328 330 339 342 335 333 338 339 332 317 310 306 295 287
150 147 170 265 303 336 280 245 221 220 220 210 236 253 277 286 275 268 273 274 273 287 294 299 303 297 298 304 312 315 316 323 343 342 341 342 342 341 333 324 326 315 301 294
154 144 154 248 38 252 253 209 199 218 243 226 238 260 258 260 272 272 261 250 281 297 299 301 304 304 309 318 325 320 327 339 345 343 340 344 344 337 336 342 340 328 317 313
177 159 151 155 236 275 289 259 182 204 269 235 234 258 270 285 302 293 257 249 263 276 289 292 294 297 311 321 325 336 354 356 355 342 335 331 327 330 338 340 335 332 343 341
85 127 148 158 205 248 266 261 183 128 282 257 221 243 250 226 275 275 274 286 290 300 305 308 316 323 325 325 338 359 353 359 349 331 323 325 330 337 336 335 342 353 356 340
107 111 175 194 229 261 263 245 129 171 262 291 227 229 210 218 236 269 287 303 301 309 312 322 329 331 322 332 3 10 359 349 335 338 342 347 348 341 332 350 357 357 4 13
178 174 191 176 219 257 228 137 183 228 284 281 255 229 226 248 269 278 289 305 319 323 324 331 343 333 334 347 14 2 341 335 343 355 359 354 350 342 353 4 353 359 10 16
205 200 198 200 222 261 193 212 238 236 265 270 257 256 235 243 258 274 279 286 305 310 315 328 340 341 345 351 4 351 334 345 358 5 1 354 353 352 358 358 348 353 358 1
248 201 206 253 266 268 264 260 270 261 259 273 267 256 231 239 255 261 269 290 305 310 314 333 356 353 341 342 351 342 338 352 4 357 349 351 356 358 2 359 357 355 343 333
233 186 216 257 276 297 276 255 269 278 280 284 282 253 230 229 247 246 263 273 282 302 315 331 336 334 329 335 342 342 345 353 356 347 345 347 350 347 354 4 10 353 342 316
214 198 206 241 246 243 270 274 266 262 269 270 276 279 260 230 234 238 256 261 266 294 318 332 330 329 328 336 335 337 340 342 339 340 346 344 343 342 346 354 2 15 10 5
Height
1480 1485 1486 1484 1484 1484 1486 1489 1491 1489 1486 1487 1488 1486 1483 1482 1481 1480 1480 1480 1479 1479 1480 1480 1480 1479 1479 1478 1478 1478 1478 1478 1478 1479 1479 1480 1480 1481 1482 1483 1483 1485 1485 1487
1484 1485 1482 1482 1483 1484 1485 1488 1490 1489 1486 1487 1488 1486 1481 1480 1479 1478 1478 1478 1478 1477 1478 1477 1478 1477 1477 1476 1476 1476 1476 1476 1477 1477 1477 1477 1478 1478 1479 1480 1481 1482 1482 1483
1482 1481 1479 1481 1483 1484 1484 1486 1487 1489 1488 1488 1489 1485 1481 1478 1477 1477 1476 1476 1476 1476 1476 1476 1476 1475 1475 1474 1474 1474 1474 1474 1474 1474 1475 1475 1475 1476 1476 1477 1477 1478 1478 1480
1482 1480 1479 1480 1482 1482 1484 1482 1484 1486 1490 1493 1491 1492 1481 1479 1477 1476 1475 1475 1475 1475 1475 1475 1474 1474 1473 1473 1473 1472 1472 1472 1472 1472 1472 1471 1471 1472 1472 1473 1474 1475 1476 1477
1480 1478 1478 1480 1480 1480 1482 1482 1484 1486 1490 1495 1494 1496 1483 1480 1478 1475 1474 1473 1473 1473 1473 1473 1473 1472 1472 1472 1471 1470 1470 1470 1470 1469 1469 1469 1469 1469 1470 1470 1471 1472 1472 1473
1479 1478 1478 1478 1478 1479 1481 1484 1487 1492 1495 1497 1492 1495 1484 1480 1474 1472 1472 1472 1472 1472 1472 1471 1471 1471 1471 1470 1469 1469 1468 1468 1467 1467 1467 1466 1466 1467 1467 1467 1468 1468 1469 1470
1480 1478 1477 1477 1479 1480 1481 1488 1497 1498 1503 1497 1490 1490 1482 1473 1471 1470 1470 1469 1470 1470 1469 1469 1469 1468 1468 1467 1467 1466 1465 1465 1465 1464 1464 1464 1464 1464 1464 1464 1465 1465 1466 1467
1484 1483 1478 1477 1478 1480 1482 1484 1494 1496 1499 1496 1491 1488 1478 1471 1470 1469 1469 1468 1468 1467 1467 1467 1467 1466 1465 1465 1465 1464 1463 1463 1462 1462 1462 1462 1462 1462 1462 1462 1462 1462 1462 1463
1484 1482 1478 1477 1477 1478 1481 1485 1486 1495 1501 1500 1492 1486 1476 1470 1469 1468 1468 1467 1467 1466 1465 1465 1465 1464 1464 1463 1463 1462 1461 1461 1460 1460 1460 1459 1459 1459 1459 1459 1459 1459 1460 1460
1481 1485 1480 1478 1478 1479 1479 1483 1490 1493 1493 1491 1487 1486 1478 1471 1469 1468 1468 1467 1465 1465 1464 1463 1463 1462 1462 1461 1461 1460 1459 1458 1458 1457 1457 1457 1456 1456 1456 1456 1456 1456 1456 1457
1480 1485 1483 1481 1481 1481 1482 1484 1486 1491 1492 1490 1488 1479 1469 1468 1467 1467 1467 1466 1465 1463 1463 1462 1461 1461 1460 1459 1459 1458 1457 1456 1455 1455 1454 1454 1453 1453 1453 1453 1453 1453 1453 1454
1480 1485 1488 1483 1479 1479 1480 1480 1484 1487 1491 1493 1490 1479 1467 1466 1466 1466 1465 1464 1463 1463 1462 1460 1460 1459 1458 1457 1456 1456 1455 1454 1453 1452 1452 1451 1451 1451 1450 1450 1450 1450 1450 1451
1480 1485 1487 1482 1484 1482 1481 1481 1482 1484 1489 1494 1489 1475 1466 1465 1465 1465 1464 1463 1462 1461 1460 1459 1458 1457 1456 1455 1455 1454 1453 1452 1451 1450 1449 1448 1448 1448 1447 1447 1447 1447 1447 1447
1477 1484 1484 1481 1478 1480 1482 1481 1482 1483 1486 1486 1480 1471 1467 1465 1464 1464 1463 1462 1461 1460 1459 1457 1456 1455 1454 1454 1453 1452 1451 1450 1449 1448 1446 1445 1445 1445 1445 1445 1445 1445 1445 1444
1476 1482 1482 1480 1479 1480 1479 1479 1479 1480 1478 1478 1470 1470 1464 1463 1463 1463 1462 1460 1459 1458 1457 1455 1454 1453 1453 1452 1451 1450 1449 1448 1447 1445 1444 1443 1443 1442 1442 1442 1442 1442 1441 1441
1477 1480 1482 1480 1477 1477 1477 1475 1475 1474 1474 1472 1470 1467 1461 1462 1461 1461 1460 1459 1458 1457 1455 1454 1452 1452 1451 1450 1449 1448 1447 1446 1445 1443 1443 1442 1441 1440 1439 1439 1439 1439 1438 1438
1478 1480 1481 1479 1479 1476 1474 1470 1470 1470 1469 1469 1466 1462 1460 1460 1460 1459 1458 1457 1456 1455 1454 1452 1451 1450 1449 1448 1447 1446 1445 1444 1443 1442 1441 1440 1439 1438 1437 1436 1436 1435 1435 1435
1477 1480 1483 1483 1481 1477 1467 1465 1465 1465 1463 1464 1462 1460 1459 1458 1457 1457 1456 1455 1454 1454 1452 1451 1450 1449 1448 1447 1446 1445 1443 1442 1441 1440 1439 1438 1437 1436 1435 1435 1434 1433 1433 1432
1472 1476 1482 1484 1482 1474 1465 1463 1465 1465 1462 1460 1460 1458 1458 1457 1456 1455 1454 1454 1453 1452 1451 1450 1448 1447 1446 1445 1444 1443 1442 1441 1440 1439 1438 1437 1436 1435 1434 1433 1432 1432 1431 1430
1473 1474 1480 1483 1479 1472 1462 1462 1461 1464 1461 1456 1456 1455 1455 1456 1457 1454 1452 1452 1451 1450 1449 1448 1446 1446 1445 1444 1443 1442 1440 1439 1438 1438 1437 1436 1435 1433 1432 1432 1431 1430 1429 1428
1477 1478 1479 1481 1479 1469 1462 1460 1461 1465 1459 1455 1453 1453 1453 1454 1453 1452 1450 1449 1449 1448 1447 1446 1445 1444 1443 1443 1442 1440 1439 1439 1438 1437 1436 1435 1433 1432 1431 1430 1429 1428 1427 1427
1475 1477 1479 1479 1477 1467 1459 1460 1461 1458 1454 1454 1452 1452 1451 1450 1450 1449 1448 1447 1447 1446 1445 1445 1443 1442 1442 1441 1441 1440 1439 1438 1437 1436 1435 1434 1433 1431 1430 1429 1428 1427 1426 1425
1471 1469 1469 1468 1464 1458 1456 1455 1455 1454 1453 1452 1451 1450 1449 1448 1448 1447 1446 1445 1445 1444 1444 1443 1442 1441 1441 1440 1440 1439 1438 1437 1436 1435 1434 1433 1432 1430 1429 1428 1427 1426 1425 1424
1466 1465 1466 1464 1457 1455 1454 1453 1453 1452 1452 1450 1449 1448 1447 1446 1446 1445 1444 1444 1444 1443 1442 1442 1441 1440 1440 1439 1439 1438 1437 1437 1435 1434 1433 1432 1431 1429 1428 1427 1426 1425 1424 1423
1461 1462 1462 1460 1455 1453 1451 1450 1450 1449 1449 1448 1447 1446 1445 1444 1443 1443 1443 1442 1442 1442 1441 1441 1440 1440 1439 1439 1438 1437 1437 1436 1434 1433 1432 1431 1430 1429 1427 1427 1426 1425 1424 1423
1457 1457 1458 1454 1451 1451 1448 1447 1447 1446 1445 1445 1444 1443 1443 1442 1442 1441 1441 1441 1441 1440 1440 1440 1439 1439 1438 1438 1437 1437 1436 1435 1434 1432 1431 1430 1429 1428 1427 1426 1425 1424 1423 1422